(367203) = 2007 CB9

Discovered at Kitt Peak on 2006-12-24 by Spacewatch.

Orbit

Orbit type: Main Belt

Note: WebGL enabled browser required.

epoch2023-09-13.0
epoch JD2460200.5
perihelion date2021-05-23.61077
perihelion JD2459358.11077
argument of perihelion (°)246.20239
ascending node (°)304.29533
inclination (°)8.02932
eccentricity0.0949067
perihelion distance (AU)2.4830716
Tisserand w.r.t. Jupiter3.3
ΔV w.r.t. Earth (km/sec)10.2
semimajor axis (AU)2.7434427
mean anomaly (°)182.71442
mean daily motion (°/day)0.21690020
aphelion distance (AU)3.004
period (years)4.54
P-vector [x]-0.97585184
P-vector [y]-0.11168738
P-vector [z]-0.18772083
Q-vector [x]0.18546430
Q-vector [y]-0.87766100
Q-vector [z]-0.44194361
absolute magnitude16.94
phase slope0.15
uncertainty0
referenceMPO 779601
observations used185
oppositions13
arc length (days)7524
first opposition used2003
last opposition used2023
residual rms (arc-secs)0.79
perturbers coarse indicatorM-v
perturbers precise indicator003Ek
first observation date used2003-03-30.0
last observation date used2023-11-04.0
computer nameMPCLINUX
JD of orbit computation2456966.896875
perihelion JD uncertainty (days)1.8938E-04
argument of perihelion uncertainty (°)5.6016E-05
ascending node uncertainty (°)3.6527E-05
inclination uncertainty (°)7.4654E-06
eccentricity uncertainty 6.0587E-08
perihelion distance uncertainty (AU)1.5717E-07
Minimum Orbit Intersection Distances (in AU)
for orbit epoch: 2460200.5, reference: E2023-V42
Mercury2.06702
Venus1.77903
Earth1.49625
Mars0.87499
Jupiter2.02949
Saturn6.25908
Uranus15.941
Neptune26.888

Observations

193 total observations over interval: 2003 03 30.28221 – 2023 11 04.413631
These data are available for download (format description).

Date (UT) J2000 RA J2000 Dec Magn Location Ref
2003 03 30.28221 12 25 52.83 -16 11 43.6 20.3 V 691 – Steward Observatory, Kitt Peak-Spacewatch MPS 420301
2003 03 30.31365 12 25 51.06 -16 11 37.1 20.3 V 691 – Steward Observatory, Kitt Peak-Spacewatch MPS 420301
2003 03 30.34433 12 25 49.36 -16 11 30.2 20.3 V 691 – Steward Observatory, Kitt Peak-Spacewatch MPS 420301
2006 12 24.45053 08 54 14.19 +18 58 50.5 21.6 V 691 – Steward Observatory, Kitt Peak-Spacewatch MPS 280198
2006 12 24.46789 08 54 13.65 +18 58 49.8 21.3 V 691 – Steward Observatory, Kitt Peak-Spacewatch MPS 280198
2006 12 24.48525 08 54 13.11 +18 58 48.9 21.0 V 691 – Steward Observatory, Kitt Peak-Spacewatch MPS 280198
2007 01 24.30129 08 29 13.74 +19 01 32.9 20.1 V G96 – Mt. Lemmon Survey MPS 280198
2007 01 24.30924 08 29 13.12 +19 01 33.7 19.5 V G96 – Mt. Lemmon Survey MPS 280198
2007 01 24.31723 08 29 12.80 +19 01 33.8 19.5 V G96 – Mt. Lemmon Survey MPS 280198
2007 01 24.32518 08 29 12.22 +19 01 33.6 20.2 V G96 – Mt. Lemmon Survey MPS 280198
2007 02 06.21589 08 16 16.08 +19 03 18.1   691 – Steward Observatory, Kitt Peak-Spacewatch MPS 198804
2007 02 06.23254 08 16 15.15 +19 03 18.6   691 – Steward Observatory, Kitt Peak-Spacewatch MPS 198804
2007 02 06.24912 08 16 14.18 +19 03 18.4   691 – Steward Observatory, Kitt Peak-Spacewatch MPS 198804
2007 02 08.16845 08 14 26.64 +19 03 00.3   691 – Steward Observatory, Kitt Peak-Spacewatch MPS 198804
2007 02 08.18198 08 14 25.86 +19 03 00.4   691 – Steward Observatory, Kitt Peak-Spacewatch MPS 198804
2007 02 08.19552 08 14 25.08 +19 03 00.3   691 – Steward Observatory, Kitt Peak-Spacewatch MPS 198804
2007 02 22.21684 08 03 29.26 +18 55 08.5 20.7 V G96 – Mt. Lemmon Survey MPS 280198
2007 02 22.22282 08 03 29.05 +18 55 07.9 20.9 V G96 – Mt. Lemmon Survey MPS 280198
2007 02 22.22891 08 03 28.80 +18 55 07.7 20.6 V G96 – Mt. Lemmon Survey MPS 280198
2007 02 22.23500 08 03 28.54 +18 55 07.3 20.8 V G96 – Mt. Lemmon Survey MPS 280198
2010 12 09.26509 04 19 12.07 +31 21 25.2 20.6 V G96 – Mt. Lemmon Survey MPS 444904
2010 12 09.27198 04 19 11.64 +31 21 23.3 20.6 V G96 – Mt. Lemmon Survey MPS 444904
2010 12 09.27892 04 19 11.20 +31 21 21.2 20.7 V G96 – Mt. Lemmon Survey MPS 444904
2010 12 09.28587 04 19 10.77 +31 21 19.1 20.4 V G96 – Mt. Lemmon Survey MPS 444904
2012 02 27.46673 12 02 01.080 -10 55 23.20 20.8 w F51 – Pan-STARRS 1, Haleakala MPS 420301
2012 02 27.48150 12 02 00.442 -10 55 23.66 20.7 w F51 – Pan-STARRS 1, Haleakala MPS 420301
2012 02 27.49630 12 01 59.795 -10 55 24.01 20.7 w F51 – Pan-STARRS 1, Haleakala MPS 420301
2012 02 27.51106 12 01 59.153 -10 55 24.38 20.8 w F51 – Pan-STARRS 1, Haleakala MPS 420301
2012 03 13.40558 11 49 57.417 -10 40 26.44 20.1 i F51 – Pan-STARRS 1, Haleakala MPS 420847
2012 03 13.41808 11 49 56.737 -10 40 24.63 20.0 i F51 – Pan-STARRS 1, Haleakala MPS 420847
2012 03 25.25233 11 39 21.60 -10 02 17.8 20.2 V G96 – Mt. Lemmon Survey MPS 420301
2012 03 25.26103 11 39 21.13 -10 02 15.7 19.9 V G96 – Mt. Lemmon Survey MPS 420301
2012 03 25.26978 11 39 20.70 -10 02 14.0 19.7 V G96 – Mt. Lemmon Survey MPS 420301
2012 03 25.27848 11 39 20.16 -10 02 11.7 19.8 V G96 – Mt. Lemmon Survey MPS 420301
2013 07 08.50623 20 19 55.752 -21 20 01.75 20.9 g F51 – Pan-STARRS 1, Haleakala MPS 471798
2013 07 08.51705 20 19 55.164 -21 20 01.99 20.9 g F51 – Pan-STARRS 1, Haleakala MPS 471798
2013 07 18.43213 20 10 38.043 -21 22 57.29 20.3 i F51 – Pan-STARRS 1, Haleakala MPS 472107
2013 07 18.44219 20 10 37.434 -21 22 57.60 20.4 i F51 – Pan-STARRS 1, Haleakala MPS 472107
2013 07 18.47740 20 10 35.296 -21 22 57.88 20.3 r F51 – Pan-STARRS 1, Haleakala MPS 472107
2014 10 17.26216 01 10 41.48 +20 16 26.1 19.4 V G96 – Mt. Lemmon Survey MPS 540386
2014 10 17.27132 01 10 40.98 +20 16 24.6 20.8 V G96 – Mt. Lemmon Survey MPS 540386
2014 10 17.27590 01 10 40.76 +20 16 22.7 20.4 V G96 – Mt. Lemmon Survey MPS 540386
2014 11 22.18305 00 47 20.49 +17 00 45.8 21.5 V G96 – Mt. Lemmon Survey MPS 549534
2014 11 22.18915 00 47 20.39 +17 00 43.9 21.8 V G96 – Mt. Lemmon Survey MPS 549534
2014 11 22.19524 00 47 20.24 +17 00 41.9 21.9 V G96 – Mt. Lemmon Survey MPS 549534
2014 11 22.20134 00 47 20.14 +17 00 41.1 21.7 V G96 – Mt. Lemmon Survey MPS 549534
2015 12 23.43695 08 12 28.729 +23 06 05.84 20.5 i F51 – Pan-STARRS 1, Haleakala MPS 665367
2015 12 23.44905 08 12 28.184 +23 06 05.17 20.6 i F51 – Pan-STARRS 1, Haleakala MPS 665367
2015 12 23.46115 08 12 27.664 +23 06 05.68 20.4 i F51 – Pan-STARRS 1, Haleakala MPS 665367
2015 12 23.47323 08 12 27.135 +23 06 05.83 20.4 i F51 – Pan-STARRS 1, Haleakala MPS 665367
2016 01 03.40840 08 03 30.721 +23 06 51.68 20.5 w F51 – Pan-STARRS 1, Haleakala MPS 668145
2016 01 03.42005 08 03 30.049 +23 06 51.81 20.6 w F51 – Pan-STARRS 1, Haleakala MPS 668145
2016 01 03.43167 08 03 29.373 +23 06 51.90 20.7 w F51 – Pan-STARRS 1, Haleakala MPS 668145
2016 01 07.72606 07 59 20.91 +23 06 58.8 19.9 R D29 – Purple Mountain Observatory, XuYi Station MPS 668145
2016 01 07.74650 07 59 19.69 +23 06 59.0 20.8 R D29 – Purple Mountain Observatory, XuYi Station MPS 668145
2016 02 05.28429 07 30 53.325 +22 47 48.44 21.0 w F51 – Pan-STARRS 1, Haleakala MPS 682254
2016 02 05.29852 07 30 52.596 +22 47 47.34 21.1 w F51 – Pan-STARRS 1, Haleakala MPS 682254
2016 02 05.31279 07 30 51.852 +22 47 46.09 21.2 w F51 – Pan-STARRS 1, Haleakala MPS 682254
2016 02 05.32730 07 30 51.100 +22 47 44.90 21.2 w F51 – Pan-STARRS 1, Haleakala MPS 682254
2016 03 13.11489 07 19 14.39 +21 25 36.6 21.9 V G96 – Mt. Lemmon Survey MPS 695712
2016 03 13.12000 07 19 14.52 +21 25 35.7 21.3 V G96 – Mt. Lemmon Survey MPS 695712
2016 03 13.12511 07 19 14.61 +21 25 35.4 21.0 V G96 – Mt. Lemmon Survey MPS 695712
2016 03 13.18218 07 19 15.28 +21 25 25.4 21.5 V G96 – Mt. Lemmon Survey MPS 695712
2016 03 13.18859 07 19 15.37 +21 25 24.6 21.0 V G96 – Mt. Lemmon Survey MPS 695712
2016 03 13.19501 07 19 15.45 +21 25 23.4 21.4 V G96 – Mt. Lemmon Survey MPS 695712
2016 04 02.26878 07 29 13.182 +20 23 04.98 21.9 w F51 – Pan-STARRS 1, Haleakala MPS 700966
2016 04 02.28139 07 29 13.732 +20 23 02.23 21.6 w F51 – Pan-STARRS 1, Haleakala MPS 700966
2016 04 02.29405 07 29 14.262 +20 22 59.46 21.8 w F51 – Pan-STARRS 1, Haleakala MPS 700966
2017 06 26.29971 15 20 21.675 -28 36 09.10 20.8 w F51 – Pan-STARRS 1, Haleakala MPS 803405
2017 06 26.31029 15 20 21.494 -28 36 05.53 20.8 w F51 – Pan-STARRS 1, Haleakala MPS 803405
2017 06 26.32087 15 20 21.301 -28 36 02.23 20.8 w F51 – Pan-STARRS 1, Haleakala MPS 803405
2018 07 11.57850 23 06 35.198 -00 47 13.77 21.8 w F51 – Pan-STARRS 1, Haleakala MPS 905890
2018 07 11.58865 23 06 35.124 -00 47 11.97 22.3 w F51 – Pan-STARRS 1, Haleakala MPS 905890
2018 07 11.59885 23 06 35.075 -00 47 09.96 22.0 w F51 – Pan-STARRS 1, Haleakala MPS 905890
2018 09 07.25515 22 32 02.38 -01 24 34.3 21.1 G G96 – Mt. Lemmon Survey MPS 914400
2018 09 07.26080 22 32 02.09 -01 24 35.4 21.3 G G96 – Mt. Lemmon Survey MPS 914400
2018 09 07.26643 22 32 01.78 -01 24 36.5 21.7 G G96 – Mt. Lemmon Survey MPS 914400
2018 09 07.27206 22 32 01.49 -01 24 37.6 21.2 G G96 – Mt. Lemmon Survey MPS 914400
2019 09 06.59418 04 17 04.937 +30 06 40.60 22.3 w F51 – Pan-STARRS 1, Haleakala MPS 1031185
2019 09 06.60292 04 17 05.287 +30 06 42.70 22.4 w F51 – Pan-STARRS 1, Haleakala MPS 1031185
2019 09 06.61161 04 17 05.634 +30 06 44.71 22.2 w F51 – Pan-STARRS 1, Haleakala MPS 1031185
2019 12 02.25180 03 47 44.74 +30 46 42.1 20.8 G G96 – Mt. Lemmon Survey MPS 1089622
2019 12 02.25694 03 47 44.44 +30 46 40.7 20.9 G G96 – Mt. Lemmon Survey MPS 1089622
2019 12 02.26207 03 47 44.12 +30 46 39.1 20.8 G G96 – Mt. Lemmon Survey MPS 1089622
2019 12 02.26726 03 47 43.75 +30 46 38.3   G96 – Mt. Lemmon Survey MPS 1089622
2019 12 04.32186 03 45 43.660 +30 36 39.46 20.7 i F51 – Pan-STARRS 1, Haleakala MPS 1089622
2019 12 04.33454 03 45 42.872 +30 36 35.77 21.0 i F51 – Pan-STARRS 1, Haleakala MPS 1089622
2019 12 04.34733 03 45 42.116 +30 36 31.94 20.7 i F51 – Pan-STARRS 1, Haleakala MPS 1089622
2019 12 17.20052 03 34 41.70 +29 27 50.6 20.9 G G96 – Mt. Lemmon Survey MPS 1100611
2019 12 17.20563 03 34 41.47 +29 27 48.7 21.2 G G96 – Mt. Lemmon Survey MPS 1100611
2019 12 17.21076 03 34 41.29 +29 27 47.0 21.1 G G96 – Mt. Lemmon Survey MPS 1100611
